DW1336 Weather Reports


Display with metric or nautical units.
time (UTC)temp
F
wind
direction
speed
MPH
gust
MPH
rain 1hr
in
rain 24hr
in
rain mn
in
humidity
%
barometer
mb
20260906220105 93 13 2.0 7.0 0.00 0.00 0.00 30 1000.1
20260906215605 93 67 2.0 7.0 0.00 0.00 0.00 30 1000.2
20260906215104 93 5 2.0 6.0 0.00 0.00 0.00 31 1000.2
20260906214605 93 16 1.0 6.0 0.00 0.00 0.00 32 1000.3
20260906214105 93 12 2.0 5.0 0.00 0.00 0.00 30 1000.4
20260906213604 93 19 2.0 6.0 0.00 0.00 0.00 31 1000.4
20260906213104 93 56 2.0 6.0 0.00 0.00 0.00 32 1000.5
20260906212604 92 53 2.0 5.0 0.00 0.00 0.00 31 1000.6
20260906212104 93 332 2.0 8.0 0.00 0.00 0.00 31 1000.6
20260906211604 92 10 2.0 8.0 0.00 0.00 0.00 31 1000.7
20260906211104 92 23 1.0 3.0 0.00 0.00 0.00 31 1000.7
20260906210605 92 352 2.0 6.0 0.00 0.00 0.00 31 1000.8
20260906210105 92 138 1.0 6.0 0.00 0.00 0.00 31 1000.9
20260906205605 92 350 2.0 7.0 0.00 0.00 0.00 32 1001.0
20260906205105 92 3 2.0 8.0 0.00 0.00 0.00 32 1001.1
20260906204605 92 0 2.0 10.0 0.00 0.00 0.00 32 1001.1
20260906204105 92 340 3.0 10.0 0.00 0.00 0.00 32 1001.3
20260906203605 92 264 0.0 5.0 0.00 0.00 0.00 33 1001.3
20260906203104 91 321 2.0 5.0 0.00 0.00 0.00 32 1001.4
20260906202604 91 159 1.0 9.0 0.00 0.00 0.00 32 1001.5
20260906202105 91 353 1.0 9.0 0.00 0.00 0.00 33 1001.6
20260906201604 91 359 2.0 9.0 0.00 0.00 0.00 31 1001.6
20260906201104 92 3 2.0 5.0 0.00 0.00 0.00 31 1001.7
20260906200604 92 337 1.0 3.0 0.00 0.00 0.00 32 1001.8
20260906200104 91 333 1.0 6.0 0.00 0.00 0.00 32 1001.7
20260906195604 91 353 2.0 6.0 0.00 0.00 0.00 31 1001.8
20260906195105 91 342 1.0 5.0 0.00 0.00 0.00 34 1001.9
20260906194605 90 81 2.0 5.0 0.00 0.00 0.00 33 1001.9
20260906194105 89 34 1.0 5.0 0.00 0.00 0.00 34 1002.1
20260906193605 89 12 3.0 5.0 0.00 0.00 0.00 33 1002.2
20260906192604 89 332 1.0 5.0 0.00 0.00 0.00 35 1002.5
20260906192104 88 338 1.0 7.0 0.00 0.00 0.00 36 1002.6
20260906191604 88 23 2.0 7.0 0.00 0.00 0.00 35 1002.7
20260906191104 88 5 1.0 3.0 0.00 0.00 0.00 36 1002.8
20260906190605 88 46 1.0 6.0 0.00 0.00 0.00 37 1002.7
20260906190105 88 350 2.0 6.0 0.00 0.00 0.00 36 1002.9
20260906185604 88 71 1.0 3.0 0.00 0.00 0.00 37 1002.9
20260906184604 87 28 1.0 5.0 0.00 0.00 0.00 37 1003.3
20260906184104 86 43 1.0 5.0 0.00 0.00 0.00 38 1003.3
20260906183605 86 0 1.0 5.0 0.00 0.00 0.00 39 1003.4
20260906183104 86 33 2.0 3.0 0.00 0.00 0.00 38 1003.5
20260906182604 87 73 0.0 3.0 0.00 0.00 0.00 39 1003.6
20260906182104 86 326 0.0 3.0 0.00 0.00 0.00 41 1003.8
20260906181604 85 357 1.0 3.0 0.00 0.00 0.00 40 1003.9
20260906181104 84 224 0.0 3.0 0.00 0.00 0.00 42 1004.1
20260906180604 84 5 1.0 3.0 0.00 0.00 0.00 40 1004.2
20260906180104 84 8 1.0 3.0 0.00 0.00 0.00 40 1004.4
20260906175604 83 21 1.0 3.0 0.00 0.00 0.00 40 1004.4
20260906175104 83 352 1.0 3.0 0.00 0.00 0.00 40 1004.5
20260906174604 82 66 1.0 3.0 0.00 0.00 0.00 41 1004.7
20260906174104 82 23 1.0 5.0 0.00 0.00 0.00 41 1004.8
20260906173604 82 157 0.0 5.0 0.00 0.00 0.00 42 1004.8
20260906173104 82 55 2.0 5.0 0.00 0.00 0.00 42 1004.9
20260906172604 82 81 1.0 3.0 0.00 0.00 0.00 42 1005.1
20260906172105 81 333 2.0 3.0 0.00 0.00 0.00 41 1005.3
20260906171605 81 0 1.0 3.0 0.00 0.00 0.00 41 1005.3
20260906171104 81 71 1.0 3.0 0.00 0.00 0.00 42 1005.5
20260906170604 82 101 0.0 3.0 0.00 0.00 0.00 42 1005.6
20260906170106 81 9 1.0 3.0 0.00 0.00 0.00 41 1005.7
20260906165604 80 348 0.0 3.0 0.00 0.00 0.00 43 1005.7
20260906164604 79 317 0.0 3.0 0.00 0.00 0.00 44 1005.9
20260906164104 80 57 1.0 3.0 0.00 0.00 0.00 45 1005.9
20260906163604 79 327 1.0 3.0 0.00 0.00 0.00 45 1005.9
20260906163104 78 40 1.0 3.0 0.00 0.00 0.00 45 1005.9
20260906162604 78 148 1.0 2.0 0.00 0.00 0.00 45 1006.0
20260906162105 78 21 1.0 3.0 0.00 0.00 0.00 43 1005.9
20260906161604 78 50 0.0 3.0 0.00 0.00 0.00 43 1005.9
20260906161105 78 65 1.0 3.0 0.00 0.00 0.00 44 1005.9
20260906160604 77 355 1.0 2.0 0.00 0.00 0.00 44 1005.9
20260906155604 77 71 0.0 2.0 0.00 0.00 0.00 47 1006.0
20260906155104 76 313 0.0 2.0 0.00 0.00 0.00 49 1005.9
20260906154604 75 342 1.0 2.0 0.00 0.00 0.00 48 1005.9
20260906154105 75 312 0.0 2.0 0.00 0.00 0.00 48 1005.9
20260906153604 74 28 0.0 2.0 0.00 0.00 0.00 50 1005.9
20260906153104 74 56 1.0 2.0 0.00 0.00 0.00 52 1005.9
20260906152604 73 71 0.0 2.0 0.00 0.00 0.00 55 1006.0
20260906152104 72 82 0.0 2.0 0.00 0.00 0.00 54 1006.0
20260906151604 72 159 0.0 2.0 0.00 0.00 0.00 57 1006.0
20260906151104 70 155 0.0 2.0 0.00 0.00 0.00 60 1006.0
20260906150105 69 234 1.0 2.0 0.00 0.00 0.00 62 1006.0
20260906145604 69 226 0.0 2.0 0.00 0.00 0.00 62 1006.0
20260906145105 70 161 0.0 2.0 0.00 0.00 0.00 62 1006.0
20260906144605 69 58 0.0 2.0 0.00 0.00 0.00 65 1006.0
20260906144104 68 52 0.0 2.0 0.00 0.00 0.00 67 1006.0
20260906143604 67 36 0.0 2.0 0.00 0.00 0.00 69 1006.1
20260906143104 65 86 0.0 2.0 0.00 0.00 0.00 70 1006.1
20260906142605 65 202 0.0 2.0 0.00 0.00 0.00 70 1006.2
20260906142105 64 201 0.0 2.0 0.00 0.00 0.00 71 1006.2
20260906141605 64 207 0.0 2.0 0.00 0.00 0.00 71 1006.2
20260906141105 64 207 1.0 2.0 0.00 0.00 0.00 71 1006.3
20260906140605 63 198 0.0 2.0 0.00 0.00 0.00 71 1006.3
20260906140105 63 197 0.0 2.0 0.00 0.00 0.00 72 1006.2
20260906135604 63 196 0.0 2.0 0.00 0.00 0.00 72 1006.2
20260906135104 63 196 1.0 2.0 0.00 0.00 0.00 71 1006.2
20260906134604 63 190 1.0 2.0 0.00 0.00 0.00 71 1006.2
20260906134104 62 96 0.0 1.0 0.00 0.00 0.00 73 1006.2
20260906133604 62 96 0.0 2.0 0.00 0.00 0.00 72 1006.1
20260906133105 62 93 0.0 2.0 0.00 0.00 0.00 72 1006.2
20260906132105 61 100 0.0 2.0 0.00 0.00 0.00 73 1006.1
20260906131605 61 139 0.0 2.0 0.00 0.00 0.00 75 1006.1
20260906131105 61 140 0.0 2.0 0.00 0.00 0.00 75 1006.0
20260906130605 60 225 0.0 2.0 0.00 0.00 0.00 75 1005.9
20260906130105 60 229 0.0 2.0 0.00 0.00 0.00 76 1005.7
20260906125604 60 229 0.0 2.0 0.00 0.00 0.00 77 1005.7
20260906124604 60 229 0.0 0.0 0.00 0.00 0.00 76 1005.6
20260906124104 60 229 0.0 0.0 0.00 0.00 0.00 76 1005.5
20260906123604 60 229 0.0 0.0 0.00 0.00 0.00 75 1005.5
20260906123105 60 229 0.0 0.0 0.00 0.00 0.00 75 1005.5
20260906122605 60 229 0.0 2.0 0.00 0.00 0.00 75 1005.5
20260906122105 60 229 0.0 2.0 0.00 0.00 0.00 75 1005.6
20260906121105 61 229 0.0 0.0 0.00 0.00 0.00 74 1005.6
20260906120604 61 229 0.0 1.0 0.00 0.00 0.00 74 1005.6
20260906115604 61 229 0.0 1.0 0.00 0.00 0.00 73 1005.7
20260906114604 61 229 0.0 2.0 0.00 0.00 0.00 72 1005.6
20260906114104 61 224 0.0 1.0 0.00 0.00 0.00 73 1005.7
20260906113605 61 224 0.0 2.0 0.00 0.00 0.00 73 1005.6
20260906113104 62 224 0.0 2.0 0.00 0.00 0.00 72 1005.6
20260906112604 62 224 0.0 2.0 0.00 0.00 0.00 71 1005.6
20260906112104 62 224 0.0 2.0 0.00 0.00 0.00 72 1005.5
20260906111105 62 224 0.0 2.0 0.00 0.00 0.00 72 1005.6
20260906110604 62 224 0.0 2.0 0.00 0.00 0.00 71 1005.4
20260906110105 62 224 0.0 0.0 0.00 0.00 0.00 68 1005.3
20260906105604 62 224 0.0 0.0 0.00 0.00 0.00 68 1005.1
20260906105105 62 224 0.0 1.0 0.00 0.00 0.00 68 1005.0
20260906104605 62 224 0.0 1.0 0.00 0.00 0.00 68 1004.9
20260906104104 63 224 0.0 1.0 0.00 0.00 0.00 68 1005.1
20260906103604 63 224 0.0 2.0 0.00 0.00 0.00 68 1005.1
20260906103104 63 224 0.0 2.0 0.00 0.00 0.00 68 1005.0
20260906102604 63 224 0.0 2.0 0.00 0.00 0.00 68 1004.9
20260906102104 63 224 0.0 2.0 0.00 0.00 0.00 69 1005.0
20260906101104 62 204 0.0 2.0 0.00 0.00 0.00 68 1004.9
20260906100604 63 204 0.0 2.0 0.00 0.00 0.00 68 1004.8
20260906100104 63 204 0.0 0.0 0.00 0.00 0.00 68 1004.8
20260906095604 63 204 0.0 1.0 0.00 0.00 0.00 68 1004.8
20260906095104 63 204 0.0 2.0 0.00 0.00 0.00 68 1004.8
20260906094604 63 194 0.0 2.0 0.00 0.00 0.00 67 1004.9
20260906093605 64 192 0.0 0.0 0.00 0.00 0.00 65 1005.0
20260906093104 64 192 0.0 1.0 0.00 0.00 0.00 64 1005.0
20260906092604 64 192 0.0 2.0 0.00 0.00 0.00 63 1005.0
20260906092104 65 192 0.0 2.0 0.00 0.00 0.00 62 1005.0
20260906091604 65 192 0.0 2.0 0.00 0.00 0.00 62 1004.9
20260906091104 65 192 0.0 2.0 0.00 0.00 0.00 62 1004.8
20260906090604 65 192 0.0 2.0 0.00 0.00 0.00 63 1004.8
20260906090104 65 230 0.0 2.0 0.00 0.00 0.00 64 1004.8
20260906085604 65 236 0.0 1.0 0.00 0.00 0.00 64 1004.7
20260906085104 65 236 0.0 2.0 0.00 0.00 0.00 65 1004.7
20260906084604 65 236 1.0 2.0 0.00 0.00 0.00 66 1004.7
20260906084104 66 228 1.0 2.0 0.00 0.00 0.00 66 1004.6
20260906083604 66 170 0.0 1.0 0.00 0.00 0.00 62 1004.6
20260906083104 66 170 0.0 0.0 0.00 0.00 0.00 61 1004.5
20260906082604 67 170 0.0 0.0 0.00 0.00 0.00 61 1004.5
20260906082105 67 170 0.0 0.0 0.00 0.00 0.00 60 1004.6
20260906081104 67 170 0.0 0.0 0.00 0.00 0.00 59 1004.6
20260906080604 68 170 0.0 2.0 0.00 0.00 0.00 60 1004.6
20260906080104 68 170 0.0 2.0 0.00 0.00 0.00 59 1004.6
20260906075604 68 170 0.0 2.0 0.00 0.00 0.00 59 1004.6
20260906074604 69 170 0.0 2.0 0.00 0.00 0.00 59 1004.6
20260906073604 69 167 0.0 3.0 0.00 0.00 0.00 54 1004.6
20260906073104 69 219 1.0 3.0 0.00 0.00 0.00 53 1004.6
20260906072605 69 237 2.0 5.0 0.00 0.00 0.00 54 1004.5
20260906072104 69 227 2.0 5.0 0.00 0.00 0.00 54 1004.5
20260906071604 69 239 2.0 5.0 0.00 0.00 0.00 54 1004.4
20260906071105 69 225 1.0 5.0 0.00 0.00 0.00 54 1004.4
20260906070605 70 226 1.0 5.0 0.00 0.00 0.00 54 1004.3
20260906070105 70 244 2.0 5.0 0.00 0.00 0.00 54 1004.3
20260906065604 70 235 2.0 5.0 0.00 0.00 0.00 54 1004.2
20260906065104 69 239 1.0 5.0 0.00 0.00 0.00 54 1004.2
20260906064104 70 228 2.0 5.0 0.00 0.00 0.00 55 1004.3
20260906063604 70 216 1.0 5.0 0.00 0.00 0.00 55 1004.4
20260906063104 70 228 2.0 5.0 0.00 0.00 0.00 55 1004.4
20260906062605 69 206 1.0 3.0 0.00 0.00 0.00 55 1004.4
20260906062105 70 202 0.0 2.0 0.00 0.00 0.00 56 1004.4
20260906061605 70 113 0.0 1.0 0.00 0.00 0.00 55 1004.6
20260906061104 70 63 0.0 2.0 0.00 0.00 0.00 55 1004.7
20260906060605 70 63 0.0 2.0 0.00 0.00 0.00 55 1004.8
20260906060105 71 66 0.0 2.0 0.00 0.00 0.00 54 1005.1
20260906055605 71 24 0.0 2.0 0.00 0.00 0.00 54 1005.2
20260906055104 71 55 0.0 3.0 0.00 0.00 0.00 54 1005.0
20260906054604 71 53 1.0 3.0 0.00 0.00 0.00 53 1004.8
20260906054104 71 149 0.0 3.0 0.00 0.00 0.00 55 1004.8
20260906053604 71 127 1.0 3.0 0.00 0.00 0.00 53 1004.8
20260906053104 71 276 0.0 2.0 0.00 0.00 0.00 54 1004.7
20260906052604 72 315 1.0 2.0 0.00 0.00 0.00 53 1004.9
20260906052104 72 289 0.0 2.0 0.00 0.00 0.00 52 1005.0
20260906051604 73 242 0.0 3.0 0.00 0.00 0.00 51 1004.8
20260906050604 74 274 1.0 3.0 0.00 0.00 0.00 49 1004.8
20260906050104 74 281 0.0 5.0 0.00 0.00 0.00 48 1004.9
20260906045604 74 232 1.0 5.0 0.00 0.00 0.00 48 1005.0
20260906044604 74 279 0.0 1.0 0.00 0.00 0.00 48 1005.1
20260906043104 76 275 1.0 2.0 0.00 0.00 0.00 44 1005.5
20260906042604 76 222 0.0 2.0 0.00 0.00 0.00 39 1005.4
20260906042104 76 222 0.0 2.0 0.00 0.00 0.00 39 1005.3
20260906041604 76 219 0.0 2.0 0.00 0.00 0.00 38 1005.1
20260906041104 76 274 0.0 2.0 0.00 0.00 0.00 38 1004.8
20260906040104 76 264 0.0 3.0 0.00 0.00 0.00 39 1004.7
20260906035604 75 169 2.0 5.0 0.00 0.00 0.00 40 1004.9
20260906035104 74 185 2.0 5.0 0.00 0.00 0.00 46 1004.6
20260906034604 74 83 0.0 2.0 0.00 0.00 0.00 41 1004.1
20260906033104 75 344 0.0 0.0 0.00 0.00 0.00 40 1003.6
20260906032605 75 344 0.0 0.0 0.00 0.00 0.00 39 1003.6
20260906032104 75 344 0.0 0.0 0.00 0.00 0.00 39 1003.6
20260906031604 75 344 0.0 0.0 0.00 0.00 0.00 40 1003.5
20260906031104 75 344 0.0 0.0 0.00 0.00 0.00 38 1003.4
20260906030604 75 344 0.0 0.0 0.00 0.00 0.00 38 1003.2
20260906030105 76 344 0.0 0.0 0.00 0.00 0.00 39 1003.0
20260906025604 76 344 0.0 0.0 0.00 0.00 0.00 39 1002.9
20260906025105 76 344 0.0 0.0 0.00 0.00 0.00 39 1002.9
20260906024605 77 344 0.0 0.0 0.00 0.00 0.00 38 1002.8
20260906024104 77 344 0.0 0.0 0.00 0.00 0.00 38 1002.8
20260906023104 79 344 0.0 0.0 0.00 0.00 0.00 36 1002.7
20260906022605 79 344 0.0 0.0 0.00 0.00 0.00 35 1002.7
20260906022104 80 344 0.0 0.0 0.00 0.00 0.00 35 1002.7
20260906021605 80 344 0.0 0.0 0.00 0.00 0.00 34 1002.6
20260906021104 81 344 0.0 1.0 0.00 0.00 0.00 33 1002.6
20260906020605 81 344 0.0 1.0 0.00 0.00 0.00 33 1002.6
20260906020105 81 17 0.0 2.0 0.00 0.00 0.00 32 1002.6
20260906015105 81 346 0.0 2.0 0.00 0.00 0.00 30 1002.5
20260906014605 81 346 0.0 2.0 0.00 0.00 0.00 31 1002.4
20260906014104 81 335 0.0 0.0 0.00 0.00 0.00 32 1002.2
20260906013605 82 335 0.0 0.0 0.00 0.00 0.00 31 1002.1
20260906013104 83 335 0.0 0.0 0.00 0.00 0.00 31 1002.0
20260906012604 83 335 0.0 0.0 0.00 0.00 0.00 31 1001.9
20260906012105 84 335 0.0 0.0 0.00 0.00 0.00 30 1001.9
20260906011604 84 335 0.0 0.0 0.00 0.00 0.00 30 1001.8
20260906011105 85 335 0.0 0.0 0.00 0.00 0.00 29 1001.8
20260906010604 86 335 0.0 0.0 0.00 0.00 0.00 29 1001.8
20260906005604 87 335 0.0 0.0 0.00 0.00 0.00 28 1001.9
20260906005104 87 335 0.0 0.0 0.00 0.00 0.00 26 1001.9
20260906004604 88 335 0.0 0.0 0.00 0.00 0.00 26 1002.0
20260906004104 88 335 0.0 2.0 0.00 0.00 0.00 26 1002.0
20260906003604 88 335 0.0 2.0 0.00 0.00 0.00 25 1002.0
20260906003104 89 335 0.0 2.0 0.00 0.00 0.00 25 1002.0
20260906002605 89 335 0.0 2.0 0.00 0.00 0.00 24 1001.9
20260906002104 90 333 1.0 2.0 0.00 0.00 0.00 24 1001.9
20260906001605 90 17 0.0 2.0 0.00 0.00 0.00 24 1001.8
20260906001104 90 21 0.0 2.0 0.00 0.00 0.00 24 1001.9
20260906000605 91 50 0.0 2.0 0.00 0.00 0.00 23 1001.8
20260905235604 92 60 0.0 3.0 0.00 0.00 0.00 22 1001.7
20260905235104 93 70 2.0 3.0 0.00 0.00 0.00 22 1001.6
20260905234604 93 319 0.0 3.0 0.00 0.00 0.00 22 1001.5
20260905234104 93 329 1.0 3.0 0.00 0.00 0.00 22 1001.5
20260905233604 94 6 0.0 2.0 0.00 0.00 0.00 22 1001.6
20260905232604 93 227 1.0 2.0 0.00 0.00 0.00 22 1001.5
20260905232105 93 319 1.0 2.0 0.00 0.00 0.00 23 1001.6
20260905231605 93 331 0.0 2.0 0.00 0.00 0.00 23 1001.5
20260905230604 93 42 1.0 2.0 0.00 0.00 0.00 21 1001.5
20260905230105 94 10 1.0 3.0 0.00 0.00 0.00 22 1001.6
20260905225604 94 293 1.0 3.0 0.00 0.00 0.00 23 1001.6
20260905225104 94 242 1.0 3.0 0.00 0.00 0.00 23 1001.6
20260905224604 94 315 0.0 3.0 0.00 0.00 0.00 23 1001.7
20260905224104 94 313 1.0 3.0 0.00 0.00 0.00 23 1001.6
20260905223604 94 321 1.0 3.0 0.00 0.00 0.00 23 1001.7
20260905223104 95 351 2.0 3.0 0.00 0.00 0.00 21 1001.7
20260905222104 96 261 0.0 3.0 0.00 0.00 0.00 21 1001.7
20260905221604 96 26 0.0 3.0 0.00 0.00 0.00 22 1001.8